User: anonymous   Login
Location: Unspecified
(0.0000°N, 0.0000°E)
Time: 21:52:20
(UTC+00:00)
Language:

Kopernikus - Orbit

View from above orbital plane
View from above orbital plane
View from above satellite
View from above satellite

Ground track
Ground track

The orbit is defined by the following mean orbital elements,

1 20041U          26150.40632550 +.00000000 +00000-0 +00000-0 0 00009
2 20041  13.9986 346.6922 0013526 313.0240 259.3544  1.00650310    05
Epoch (UTC): 30 May 2026 09:45:06
Eccentricity: 0.0013526
inclination: 13.9986°
perigee height: 35624 km
apogee height: 35738 km
right ascension of ascending node: 346.6922°
argument of perigee: 313.0240°
revolutions per day: 1.00650310
mean anomaly at epoch: 259.3544°

The dashed part of the orbit path shows where the satellite is in the earth's shadow,  

DLR